DW8016 Weather Reports


Display with metric or nautical units.
time (UTC)temp
F
wind
direction
speed
MPH
gust
MPH
rain 1hr
in
rain 24hr
in
rain mn
in
humidity
%
barometer
mb
20260504185424 77 167 5.0 12.0 0.00 0.00 0.00 31 1010.0
20260504184412 78 157 4.0 10.0 0.00 0.00 0.00 30 1010.1
20260504183357 79 184 3.0 10.0 0.00 0.00 0.00 29 1010.2
20260504182343 79 227 4.0 14.0 0.00 0.00 0.00 30 1010.4
20260504180151 78 148 3.0 11.0 0.00 0.00 0.00 32 1010.8
20260504175209 77 268 4.0 11.0 0.00 0.00 0.00 31 1011.0
20260504174155 78 117 3.0 11.0 0.00 0.00 0.00 31 1011.1
20260504172101 76 254 3.0 9.0 0.00 0.00 0.00 33 1011.2
20260504171111 76 243 4.0 11.0 0.00 0.00 0.00 31 1011.5
20260504151016 74 136 3.0 9.0 0.00 0.00 0.00 29 1012.8
20260504140952 68 251 3.0 8.0 0.00 0.00 0.00 36 1013.1
20260504081528 52 211 0.0 4.0 0.00 0.00 0.00 60 1014.3
20260504080457 52 215 0.0 1.0 0.00 0.00 0.00 60 1014.4
20260504070402 53 191 0.0 0.0 0.00 0.00 0.00 54 1014.3
20260504050121 49 263 0.0 0.0 0.00 0.00 0.00 60 1014.7
20260504045105 49 263 0.0 0.0 0.00 0.00 0.00 60 1014.7
20260504044054 49 263 0.0 0.0 0.00 0.00 0.00 58 1014.8
20260504041943 49 263 0.0 0.0 0.00 0.00 0.00 58 1014.7
20260504040958 49 263 0.0 0.0 0.00 0.00 0.00 59 1014.6
20260504040000 48 263 0.0 0.0 0.00 0.00 0.00 58 1014.7
20260504033741 49 263 0.0 0.0 0.00 0.00 0.00 56 1014.7
20260504032713 49 263 0.0 0.0 0.00 0.00 0.00 56 1014.6
20260504031707 50 263 0.0 0.0 0.00 0.00 0.00 56 1014.5
20260504025512 50 263 0.0 0.0 0.00 0.00 0.00 54 1014.5
20260504023359 50 263 0.0 0.0 0.00 0.00 0.00 55 1014.3
20260504022351 50 263 0.0 0.0 0.00 0.00 0.00 55 1014.2
20260504021341 50 263 0.0 0.0 0.00 0.00 0.00 55 1014.1
20260504020325 51 263 0.0 0.0 0.00 0.00 0.00 52 1014.1
20260504015343 52 263 0.0 0.0 0.00 0.00 0.00 52 1014.0
20260504014407 53 263 0.0 0.0 0.00 0.00 0.00 49 1013.9
20260504013429 53 263 0.0 0.0 0.00 0.00 0.00 48 1013.9
20260504012403 54 263 0.0 0.0 0.00 0.00 0.00 46 1013.8
20260504011340 55 263 0.0 0.0 0.00 0.00 0.00 45 1013.8
20260504010347 56 263 0.0 0.0 0.00 0.00 0.00 43 1013.8
20260504005403 56 263 0.0 0.0 0.00 0.00 0.00 42 1013.8
20260504004350 57 263 0.0 0.0 0.00 0.00 0.00 41 1013.6
20260504002238 59 263 0.0 1.0 0.00 0.00 0.00 34 1013.5
20260504001237 60 263 0.0 1.0 0.00 0.00 0.00 32 1013.5
20260504000211 61 263 0.0 1.0 0.00 0.00 0.00 32 1013.3
20260503235222 61 263 0.0 6.0 0.00 0.00 0.00 31 1013.2
20260503233034 62 242 1.0 6.0 0.00 0.00 0.00 30 1013.2
20260503232045 62 296 2.0 6.0 0.00 0.00 0.00 29 1013.0
20260503231023 63 322 0.0 6.0 0.00 0.00 0.00 31 1012.8
20260503230015 63 286 1.0 8.0 0.00 0.00 0.00 29 1012.8
20260503225008 63 294 2.0 8.0 0.00 0.00 0.00 28 1012.9
20260503222811 64 332 2.0 7.0 0.00 0.00 0.00 28 1013.0
20260503221746 64 322 3.0 11.0 0.00 0.00 0.00 27 1012.9
20260503220747 64 261 1.0 8.0 0.00 0.00 0.00 27 1013.1
20260503215722 64 288 3.0 11.0 0.00 0.00 0.00 27 1013.1
20260503214728 65 300 2.0 11.0 0.00 0.00 0.00 28 1013.1
20260503213730 65 302 2.0 9.0 0.00 0.00 0.00 27 1013.1
20260503212740 65 278 2.0 6.0 0.00 0.00 0.00 28 1013.2
20260503211711 65 317 1.0 12.0 0.00 0.00 0.00 28 1013.2
20260503210650 65 317 2.0 12.0 0.00 0.00 0.00 26 1013.2
20260503205641 66 290 1.0 9.0 0.00 0.00 0.00 27 1013.2
20260503203453 66 246 3.0 8.0 0.00 0.00 0.00 28 1013.3
20260503202438 65 224 3.0 13.0 0.00 0.00 0.00 27 1013.5
20260503201432 66 313 3.0 13.0 0.00 0.00 0.00 28 1013.6
20260503200429 65 306 3.0 13.0 0.00 0.00 0.00 28 1013.8
20260503195448 65 302 3.0 13.0 0.00 0.00 0.00 28 1013.8
20260503194513 65 287 3.0 9.0 0.00 0.00 0.00 28 1014.0
20260503193528 64 266 3.0 12.0 0.00 0.00 0.00 29 1014.0
20260503192542 64 317 3.0 12.0 0.00 0.00 0.00 29 1014.2
20260503190345 66 323 4.0 11.0 0.00 0.00 0.00 27 1014.6